Location: Davayat
(45.9471°N, 3.1105°E)
Time: 18:31:36
(UTC+00:00)

Cosmos 2056 Rocket - Pass Details

Date: 01 December 2020
Orbit: 741 x 801 km, 74.0° (Epoch: 22 January)

Event Time Altitude Azimuth Distance (km) Brightness Sun altitude
Rises 18:03:08 0° 344° (NNW) 3,249 6.8 -20.0°
Reaches altitude 10° 18:05:41 10° 352° (N) 2,329 6.0 -20.5°
Enters shadow 18:09:36 34° 35° (NE) 1,260 4.2 -21.1°
